Regional Weather Roundup
Issued by NWS Newport/Morehead, NC

Current Version | Previous Version | Graphics & Text | Print | Product List | Glossary Off
Versions: 1 2 3 4 5 6 7 8 9 10 11 12 13 14 15 16 17 18 19 20 21 22 23 24 25 26 27 28 29 30 31 32 33 34 35 36 37 38 39 40 41 42 43 44 45 46 47 48 49 50

000
ASUS42 KMHX 031324
RWRMHX
WEATHER ROUNDUP FOR EASTERN NORTH CAROLINA
NATIONAL WEATHER SERVICE NEWPORT/MOREHEAD CITY NC
800 AM EST SAT DEC 03 2016

NOTE: "FAIR" INDICATES FEW OR NO CLOUDS BELOW 12,000 FEET
WITH NO SIGNIFICANT WEATHER AND/OR OBSTRUCTIONS TO VISIBILITY

NCZ015>017-031-032-045>047-102-103-031400-
NORTH COAST

CITY           SKY/WX    TMP DP  RH WIND       PRES   REMARKS
EDENTON        CLEAR     40  34  78 CALM      30.25R
ELIZABETH CITY CLEAR     36  32  85 W8        30.23R
KITTY HAWK     SUNNY     43  33  69 NW9       30.20R
MANTEO         CLEAR     44  31  60 N14G21    30.22R

$$

NCZ045>047-081-094-103-104-031400-
CENTRAL COAST

CITY           SKY/WX    TMP DP  RH WIND       PRES   REMARKS
FRISCO         SUNNY     47  31  53 N8G23     30.20S

$$

NCZ095-097-098-100-101-031400-
SOUTHERN COAST

CITY           SKY/WX    TMP DP  RH WIND       PRES   REMARKS
BEAUFORT       SUNNY     43  36  76 N9        30.24R
CEDAR ISLAND   NOT AVBL
JACKSONVILLE   PTCLDY    41  34  76 NW6       30.26R
PINEY ISLAND   SUNNY    N/A N/A N/A N15       30.22S
WILMINGTON     CLEAR     41  33  73 N6        30.26R


$$

NCZ011>013-027>030-043-044-078>080-089-090>093-098-031400-
COASTAL PLAIN

CITY           SKY/WX    TMP DP  RH WIND       PRES   REMARKS
AHOSKIE        CLEAR     34  29  83 CALM      30.26S HAZE
CLINTON        CLEAR     40  32  72 N6        30.28R
ELIZABETHTOWN  CLEAR     39  35  85 CALM      30.27R
GOLDSBORO      CLEAR     39  29  66 N5        30.24S
GREENVILLE     CLEAR     36  34  93 CALM      30.26S
HAVELOCK       PTCLDY    43  33  68 N9        30.25R
KENANSVILLE    CLEAR     41  30  65 N6        30.27R
KINSTON        CLEAR     36  32  87 NW3       30.27R
NEW BERN       CLEAR     41  32  70 N9        30.26R
RICHLANDS      CLOUDY    39  32  76 N5        30.26R
ROCKY MOUNT    CLEAR     37  30  75 NW6       30.26R
WASHINGTON     CLEAR     38  31  78 NW3       30.26R
WHITEVILLE     CLOUDY    40  33  76 CALM      30.27R

$$

AMZ130-135-150-152-154-156-158-170-250-252-270-ANZ085-086-088-633-658-670-031400-
MARINE OBSERVATIONS

STATION/POSITION TIME  TEMP    WIND        PRES    WAVE   SWELL
                       AIR SEA DIR/SP/G            HT/PER HT/PER
                 (UTC) (F)     (DEG/KT/KT) (MB)    (FT/S) (FT/S)
CHESAPEAKE LIGHT NOT AVBL
64 E VA BEACH    1250   49 60  330/ 23/ 29 1020.4    8/ 6
DUCK             1300   43 56  310/ 16/ 19 1022.3
2 E DUCK         NOT AVBL
OREGON INLET     1300   45 57  320/ 14/ 20 1022.6
13E OREGON INLT  1300      62                N/A     7/ 7   5/ 7
HATTERAS CG      1300   47 58  340/ 21/ 27 1022.1
DIAMOND BUOY     1250   51 75  360/ 23/ 29 1021.4    5/ 6   2/ 8
CAPE LOOKOUT     1300   44     340/ 12/ 14 1023.4
BEAUFORT LAB     1300   43 56  350/  8/ 12 1022.9
30 SE NEW RVR IN 1308   50 71   20/ 17/ 23 1023.6
30 SE NEW RVR IN NOT AVBL
27 SE WRIGHTSVLE 1308   50 69   30/ 19/ 27 1023.4
5 SE WRIGHTSVLE  1308   45 63   20/ 19/ 31 1023.4
225 S CAPE HAT   1250   65 74  360/ 16/ 21 1019.9    5/ 5   2/ 8
41 SE CHARLESTON 1250   60 75   20/ 19/ 23 1022.3    4/ 4   2/ 9

$$



USA.gov is the U.S. government's official web portal to all federal, state and local government web resources and services.